Location: Unspecified
(0.0000°N, 0.0000°E)
Time: 11:06:52
(UTC+00:00)

Explorer 11/Cluster Stage 4 - All Passes

Search period start: 30 July 2014 00:00
Search period end: 09 August 2014 00:00
Orbit: 468 x 1284 km, 28.8° (Epoch: 28 July)

Date Brightness Start Highest point End Pass type
(mag) Time Alt. Az. Time Alt. Az. Time Alt. Az.
30 Jul - 05:28:23 10° S 05:31:05 15° SSE 05:34:05 10° ESE visible
30 Jul - 07:14:35 10° SW 07:19:45 79° SSE 07:26:21 10° ENE daylight
30 Jul - 09:03:59 10° W 09:09:16 29° NNW 09:15:31 10° NNE daylight
30 Jul - 10:57:48 10° NNW 10:59:56 11° NNW 11:02:09 10° N daylight
30 Jul - 16:30:35 10° NNW 16:35:26 17° NNE 16:39:52 10° ENE daylight
30 Jul - 18:18:38 10° NW 18:25:39 49° NNE 18:31:19 10° ESE visible
30 Jul - 20:08:51 10° WNW 20:14:46 41° SSW 20:19:31 10° SE visible
31 Jul - 05:21:26 10° SSW 05:24:36 19° SSE 05:28:13 10° ESE visible
31 Jul - 07:08:15 10° WSW 07:13:14 80° NNW 07:19:37 10° ENE daylight
31 Jul - 08:58:10 10° WNW 09:02:52 23° NNW 09:08:20 10° NNE daylight
31 Jul - 16:23:15 10° NNW 16:29:02 21° NNE 16:34:17 10° ENE daylight
31 Jul - 18:11:43 10° NW 18:19:08 63° NNE 18:25:07 10° ESE daylight
31 Jul - 20:02:28 10° W 20:08:12 33° SSW 20:12:54 10° SSE visible
01 Aug - 05:14:39 10° SSW 05:18:07 24° SSE 05:22:10 10° E visible
01 Aug - 07:01:59 10° WSW 07:06:45 60° NNW 07:12:49 10° NE daylight
01 Aug - 08:52:33 10° WNW 08:56:30 18° NNW 09:00:59 10° NNE daylight
01 Aug - 14:30:28 10° N 14:31:35 10° NNE 14:32:41 10° NNE daylight
01 Aug - 16:16:02 10° NNW 16:22:35 26° NNE 16:28:29 10° E daylight
01 Aug - 18:04:52 10° NW 18:12:34 79° NNE 18:18:48 10° ESE daylight
01 Aug - 19:56:11 10° W 20:01:38 27° SSW 20:06:13 10° SSE visible
02 Aug - 05:07:58 10° SSW 05:11:38 31° SSE 05:15:58 10° E visible
02 Aug - 06:55:51 10° W 07:00:20 44° NNW 07:05:56 10° NE daylight
02 Aug - 08:47:17 10° NW 08:50:12 14° NNW 08:53:23 10° N daylight
02 Aug - 14:22:07 10° N 14:25:16 12° NNE 14:28:22 10° NE daylight
02 Aug - 16:08:55 10° NNW 16:16:05 32° NNE 16:22:31 10° E daylight
02 Aug - 17:58:05 10° WNW 18:05:58 85° SSW 18:12:24 10° ESE daylight
02 Aug - 19:50:01 10° W 19:55:05 22° SSW 19:59:26 10° SSE visible
03 Aug - 05:01:24 10° SW 05:05:10 42° SSE 05:09:39 10° ENE visible
03 Aug - 06:49:49 10° W 06:53:56 32° NNW 06:58:58 10° NE daylight
03 Aug - 08:43:08 10° NNW 08:43:56 10° NNW 08:44:44 10° N daylight
03 Aug - 14:14:35 10° N 14:18:54 15° NNE 14:23:10 10° NE daylight
03 Aug - 16:01:53 10° NW 16:09:31 39° NNE 16:16:26 10° E daylight
03 Aug - 17:51:23 10° WNW 17:59:19 69° SSW 18:05:54 10° SE daylight
03 Aug - 19:43:59 10° WSW 19:48:33 18° SSW 19:52:34 10° S visible
04 Aug - 04:54:54 10° SW 04:58:42 59° SSE 05:03:13 10° ENE visible
04 Aug - 06:43:57 10° WNW 06:47:36 24° NNW 06:51:53 10° NNE daylight
04 Aug - 14:07:17 10° NNW 14:12:28 18° NNE 14:17:38 10° ENE daylight
04 Aug - 15:54:55 10° NW 16:02:55 48° NNE 16:10:12 10° E daylight
04 Aug - 17:44:46 10° WNW 17:52:39 57° SSW 17:59:20 10° SE daylight
04 Aug - 19:38:09 10° WSW 19:42:02 15° SSW 19:45:33 10° S visible
05 Aug - 03:02:59 10° SSE 03:03:50 11° SSE 03:04:42 10° SE visible
05 Aug - 04:48:31 10° WSW 04:52:17 86° SSE 04:56:43 10° ENE visible
05 Aug - 06:38:19 10° WNW 06:41:17 17° NNW 06:44:38 10° NNE daylight
05 Aug - 14:00:07 10° NNW 14:05:59 21° NNE 14:11:53 10° ENE daylight
05 Aug - 15:48:01 10° NW 15:56:16 59° NNE 16:03:52 10° ESE daylight
05 Aug - 17:38:14 10° WNW 17:45:59 47° SSW 17:52:41 10° SE daylight
05 Aug - 19:32:33 10° SW 19:35:33 13° SSW 19:38:21 10° S visible
06 Aug - 02:55:20 10° S 02:57:28 15° SSE 02:59:37 10° ESE night (unlit)
06 Aug - 04:42:12 10° WSW 04:45:53 64° NNW 04:50:07 10° NE visible
06 Aug - 06:33:07 10° NW 06:34:59 12° NNW 06:37:00 10° N daylight
06 Aug - 13:53:02 10° NNW 13:59:27 25° NNE 14:05:58 10° ENE daylight
06 Aug - 15:41:12 10° NW 15:49:35 71° NNE 15:57:27 10° ESE daylight
06 Aug - 17:31:48 10° W 17:39:19 39° SSW 17:45:57 10° SE daylight
06 Aug - 19:27:30 10° SW 19:29:07 11° SSW 19:30:41 10° SSW visible
07 Aug - 02:48:17 10° SSW 02:51:05 21° SSE 02:53:53 10° E night (unlit)
07 Aug - 04:36:01 10° WSW 04:39:30 42° NNW 04:43:25 10° NE visible
07 Aug - 13:46:03 10° NNW 13:52:51 30° NNE 13:59:54 10° E daylight
07 Aug - 15:34:27 10° WNW 15:42:52 85° NNE 15:50:55 10° ESE daylight
07 Aug - 17:25:29 10° W 17:32:40 33° SSW 17:39:10 10° SSE daylight
08 Aug - 02:41:27 10° SSW 02:44:42 29° SSE 02:47:55 10° E night (unlit)
08 Aug - 04:29:57 10° W 04:33:09 29° NNW 04:36:37 10° NNE visible
08 Aug - 11:53:45 10° N 11:55:55 11° NNE 11:58:09 10° NE daylight
08 Aug - 13:39:07 10° NNW 13:46:13 35° NNE 13:53:42 10° E daylight
08 Aug - 15:27:47 10° WNW 15:36:09 81° SSW 15:44:18 10° SE daylight
08 Aug - 17:19:16 10° W 17:26:03 27° SSW 17:32:18 10° SSE daylight
